Location: Stonelick Lake State Park
(39.2170°N, 84.0850°W)
Time: 00:50:27
(UTC-04:00)

Daily predictions for brighter satellites

Satellite Brightness Start Highest point End
(mag) Time Altitude Azimuth Time Altitude Azimuth Time Altitude Azimuth
Sich 1 Rocket 3.9 00:05:59 64° NNW 00:05:59 64° NNW 00:09:55 10° N
Cosmos 1782 Rocket 4.3 00:09:07 48° NNE 00:09:07 48° NNE 00:12:23 10° N
Cosmos 494 Rocket 3.9 00:03:37 10° NNW 00:08:45 78° W 00:08:45 78° W
Meteor 1-18 Rocket 4.3 00:03:19 10° N 00:09:00 63° E 00:09:08 63° E
Lacrosse 5 rocket 4.2 00:10:28 10° WNW 00:12:34 14° NNW 00:14:41 10° N
Spot 4 3.9 00:14:20 74° NW 00:14:20 74° NW 00:18:46 10° NNW
Cosmos 1943 Rocket 4.3 00:09:46 10° WSW 00:14:11 23° NW 00:18:35 10° N
CZ-4 R/B 4.0 00:10:53 10° N 00:15:12 65° NW 00:15:12 65° NW
Cosmos 405 Rocket 4.4 00:15:54 10° N 00:17:52 29° N 00:17:52 29° N
SME Rocket 4.3 00:24:45 55° SW 00:25:51 64° W 00:34:29 10° NNW
Cosmos 2026 Rocket 4.0 00:25:32 63° SW 00:26:21 72° W 00:32:35 10° N
ALOS 2 4.2 00:28:20 27° NE 00:28:20 27° NE 00:31:07 10° N
CZ-4B R/B 3.6 00:22:23 10° N 00:26:59 67° NW 00:26:59 67° NW
Cosmos 1975 Rocket 3.9 00:27:18 10° N 00:30:38 49° NNW 00:30:38 49° NNW
Cosmos 1417 Rocket 4.4 00:33:48 10° N 00:40:05 81° W 00:40:20 79° SW
Cosmos 1428 Rocket 4.5 00:45:03 70° WSW 00:45:29 73° W 00:51:50 10° N
S3M 3.8 00:40:13 10° N 00:46:18 87° NE 00:46:18 87° NE
Cosmos 1697 Rocket 4.5 00:49:13 20° ENE 00:49:13 20° ENE 00:51:35 10° NE
Cosmos 2297 Rocket 3.1 00:42:50 10° N 00:48:09 39° ENE 00:48:16 39° ENE
Cosmos 2251 Rocket 4.5 00:43:20 10° NW 00:47:31 38° W 00:47:31 38° W
Lacrosse 4 Rocket 4.2 00:51:17 10° WNW 00:52:03 12° W 00:52:03 12° W
H-2A R/B 4.4 00:57:24 16° WNW 00:57:24 16° WNW 00:59:01 10° NW
ATLAS 5 CENTAUR R/B 4.1 00:55:21 10° WNW 00:59:24 21° WSW 00:59:24 21° WSW
ATLAS CENTAUR R/B 3.4 01:05:54 25° NNW 01:05:54 25° NNW 01:08:06 10° N
Cosmos 1553 Rocket 4.2 00:59:40 10° NNW 01:05:55 61° W 01:05:58 61° W
Cosmos 2082 4.0 01:05:25 10° NNW 01:10:39 60° NE 01:10:39 60° NE
Cosmos 2278 4.1 01:12:16 59° NE 01:12:16 59° NE 01:16:53 10° NNE
Meteor 1-13 Rocket 4.4 01:09:11 10° N 01:14:20 72° NNW 01:14:20 72° NNW
Meteor 1-19 Rocket 4.4 01:09:40 10° N 01:14:56 73° NNW 01:14:56 73° NNW
CZ-2C R/B 4.0 01:25:43 40° WNW 01:25:43 40° WNW 01:29:21 10° NNW
Mayak 0.5 01:24:38 10° NNE 01:26:48 30° NNE 01:26:48 30° NNE
Meteor 1-11 Rocket 4.1 01:36:32 61° WNW 01:36:32 61° WNW 01:42:05 10° N
Cosmos 2227 Rocket 2.7 01:31:42 10° NNW 01:36:06 52° NW 01:36:06 52° NW
Cosmos 2266 Rocket 4.3 01:37:32 57° WNW 01:37:32 57° WNW 01:43:29 10° N
USA 229 DEB 3.6 01:38:23 73° E 01:38:23 73° E 01:44:54 10° NE
USA 229 3.6 01:38:31 72° E 01:38:31 72° E 01:44:59 10° NE
Cosmos 407 Rocket 4.1 01:34:30 10° NNW 01:38:54 53° NNE 01:38:54 53° NNE
CZ-2C R/B 3.7 01:37:38 10° N 01:42:04 35° WNW 01:42:04 35° WNW
Cosmos 2315 Rocket 4.0 01:36:29 10° N 01:42:16 78° NNW 01:42:16 78° NNW
Meteor 1-23 Rocket 4.5 01:39:02 10° N 01:43:52 65° N 01:43:52 65° N
Cosmos 1656 4.1 01:53:47 56° NNW 01:53:47 56° NNW 01:58:32 10° NNE
Cosmos 2369 4.4 01:55:17 46° WNW 01:55:17 46° WNW 02:00:42 10° N
Meteor 2-4 Rocket 4.4 01:51:21 10° NNW 01:55:18 43° NW 01:55:18 43° NW
Cosmos 2056 Rocket 4.3 02:02:35 44° NW 02:02:35 44° NW 02:06:38 10° N
CZ-4B R/B 4.3 02:04:25 19° N 02:04:25 19° N 02:05:29 10° N
Cosmos 1980 Rocket 2.7 02:03:42 52° ENE 02:03:42 52° ENE 02:08:09 10° NNE
CZ-4C R/B 3.6 01:55:58 10° NNW 02:02:55 50° NE 02:06:48 29° ESE
BREEZE-M DEB (TANK) 4.4 01:39:30 10° NW 02:05:34 74° SW 02:07:14 60° SSE
Cosmos 1238 Rocket 4.0 02:04:46 10° N 02:09:20 65° NE 02:09:20 65° NE
Cosmos 1452 Rocket 3.9 02:28:49 60° N 02:28:49 60° N 02:33:14 10° NNE
NOSS 3-1 (C) 3.4 02:29:04 70° ENE 02:29:04 70° ENE 02:34:53 10° NE
H-2A R/B 4.1 02:26:24 10° NNE 02:28:35 31° NNE 02:28:35 31° NNE
Cosmos 1697 Rocket 3.4 02:30:56 44° WNW 02:30:56 44° WNW 02:36:12 10° N
Cosmos 2297 Rocket 3.8 02:27:14 10° NW 02:30:03 23° WNW 02:30:03 23° WNW
Cosmos 1850 Rocket 4.5 02:35:26 10° N 02:40:42 55° ENE 02:40:44 55° ENE
Nadezhda 1 Rocket 3.8 02:35:21 10° N 02:41:29 89° ENE 02:41:30 89° ESE
Cosmos 1709 Rocket 4.3 02:42:48 50° ESE 02:43:16 52° E 02:49:10 10° NNE
SL-16 R/B 2.8 02:44:16 46° E 02:44:16 46° E 02:49:18 10° NE
BREEZE M DEB (TANK) 3.8 02:48:29 73° NW 02:48:39 74° NW 02:52:02 10° NE
ISS -0.4 02:49:22 10° NNW 02:50:51 12° NNE 02:52:20 10° NE
Cosmos 2322 Rocket 2.5 02:53:12 57° E 02:53:12 57° E 02:58:36 10° NNE
Cosmos 614 Rocket 4.5 02:48:57 10° NNW 02:52:46 51° NW 02:52:46 51° NW
Meteor 1-12 Rocket 4.4 02:56:32 65° WNW 02:56:32 65° WNW 03:02:07 10° N
Cosmos 1420 Rocket 4.4 02:58:32 54° NW 02:58:32 54° NW 03:03:09 10° N
SL-16 R/B 4.0 02:55:29 15° ESE 02:59:46 32° ENE 03:05:12 10° N
Cosmos 1386 Rocket 4.4 03:01:17 66° W 03:01:20 67° W 03:07:22 10° N
Cosmos 1626 Rocket 4.4 02:58:18 10° N 03:01:42 49° NNE 03:01:42 49° NNE
Cosmos 1666 4.2 03:07:17 35° N 03:07:17 35° N 03:09:36 10° N
USA 234 3.2 03:00:28 10° NE 03:07:02 81° NW 03:08:24 59° WSW
Cosmos 839 Rocket 4.5 03:08:23 45° W 03:09:27 50° NW 03:15:26 10° NNE
Cosmos 2227 4.4 03:07:18 10° NNW 03:12:03 56° WNW 03:12:03 56° WNW
Resurs 1-4 Rocket 3.2 03:14:33 10° NNE 03:19:20 34° E 03:20:23 31° ESE
Cosmos 2181 Rocket 4.1 03:14:03 10° N 03:20:28 78° E 03:22:06 53° SSE
Cosmos 1461 4.0 03:16:26 10° NNW 03:19:15 40° NW 03:19:15 40° NW
Cosmos 1741 Rocket 4.3 03:18:03 10° NNW 03:22:27 55° WNW 03:22:27 55° WNW
ARIANE 5 R/B 3.8 03:20:48 10° NNE 03:25:24 32° E 03:26:38 29° ESE
BREEZE-M DEB (TANK) 4.4 03:19:03 10° W 03:26:19 30° NNW 03:29:16 10° NE
ATLAS 2AS CENTAUR R/B 4.0 03:26:52 28° SSE 03:29:42 36° ESE 03:36:50 10° NE
ADEOS Rocket 2.8 03:24:14 10° NNE 03:30:31 84° ESE 03:31:34 62° S
SL-08 ROCKET BODY 4.5 03:31:21 53° SSE 03:32:49 74° E 03:38:54 10° N
NOSS 3-1 (A) 3.8 03:33:28 44° W 03:34:45 52° NW 03:41:05 10° NNE
NPP 3.5 03:30:19 10° N 03:35:44 81° WNW 03:36:18 71° SW
Cosmos 1331 Rocket 3.8 03:36:02 75° SSE 03:36:23 81° ESE 03:41:34 10° NNE
Cosmos 1842 4.2 03:32:43 10° N 03:35:25 43° NNW 03:35:25 43° NNW
SL-08 R/B 3.1 03:37:31 83° NW 03:37:31 83° NW 03:42:01 10° NNW
CZ-2D R/B 2.7 03:33:58 10° NNE 03:39:20 52° E 03:40:47 41° SE
COBE Rocket 3.9 03:34:57 10° N 03:40:08 76° WNW 03:40:35 70° WSW
Cosmos 2263 Rocket 2.2 03:34:38 10° NNW 03:40:21 80° ENE 03:42:29 40° SSE
NOSS 2-3 (E) 4.4 03:41:49 44° SE 03:42:11 45° ESE 03:47:08 10° NE
Cosmos 220 Rocket 4.0 03:38:04 10° NNW 03:42:06 73° NE 03:42:06 73° NE
IRS-P3 4.2 03:39:26 10° N 03:44:44 62° WNW 03:45:21 58° WSW
Cosmos 2360 Rocket 2.4 03:44:09 49° SSE 03:45:23 61° ESE 03:50:58 10° NNE
Cosmos 1980 Rocket 4.0 03:45:28 17° WNW 03:47:03 19° NW 03:51:03 10° N
COSMOS 2428 4.3 03:45:35 20° SE 03:48:04 28° ESE 03:52:51 10° NE
CBERS-1 4.0 03:43:52 10° N 03:48:58 65° WNW 03:49:31 60° WSW
Cosmos 44 4.1 03:45:05 10° NNW 03:49:17 45° NE 03:53:36 10° SE
DELTA 2 R/B (1) 3.7 03:49:16 52° SSE 03:49:24 52° SSE 03:54:48 10° E
Cosmos 2219 Rocket 4.5 03:46:56 10° SE 03:50:18 16° E 03:53:40 10° ENE
CZ-4C R/B 3.4 03:44:44 10° NW 03:51:30 39° WSW 03:51:52 39° WSW
Cosmos 2074 Rocket 4.0 03:49:38 43° S 03:51:53 79° E 03:58:11 10° N
OAO 3 Rocket 4.0 03:54:41 37° SE 03:54:41 37° SE 03:58:18 10° E
Cosmos 2058 Rocket 3.9 03:56:09 35° SE 03:57:26 45° E 04:01:45 10° NNE
AQUA 3.9 03:53:36 10° N 03:58:16 56° WNW 03:58:41 54° W
Cosmos 1953 Rocket 3.9 03:55:56 10° N 04:00:23 64° E 04:01:44 42° SE
Cosmos 1437 Rocket 4.4 04:02:41 24° WNW 04:02:41 24° WNW 04:05:32 10° NNW
Uosat 12 SS-18 rocket 4.2 04:02:03 62° SSW 04:02:52 89° ESE 04:08:26 10° NNE
Centaur D AC-29 3.3 04:03:54 20° SSE 04:03:54 20° SSE 04:08:40 10° ESE
ATLAS 3B R/B 4.5 03:57:52 10° NNW 04:03:44 30° NE 04:09:23 10° ESE
CBERS 1 LM4 rocket 4.3 03:59:40 10° NNE 04:04:28 82° ESE 04:05:37 53° S
Centaur D AC-25 4.5 03:52:04 10° W 04:07:56 18° SSE 04:09:09 10° SE
MOS 1 Rocket 3.5 04:02:18 10° NNE 04:06:46 57° E 04:07:59 41° SSE
Cosmos 2333 Rocket 4.4 04:03:32 10° SE 04:07:20 18° E 04:11:07 10° ENE
Cosmos 2322 3.7 04:06:53 44° S 04:08:43 79° ESE 04:14:23 10° NNE
Cosmos 2154 Rocket 4.5 04:07:32 22° SSE 04:11:33 58° E 04:17:41 10° NNE
Meteor 1-15 Rocket 4.3 04:12:02 45° SW 04:13:35 61° WNW 04:19:14 10° N
NOSS 2-3 (C) 3.8 04:14:04 52° SSW 04:15:16 89° SE 04:20:40 10° NE
SL-8 R/B 3.6 04:14:20 54° SW 04:15:26 87° SSE 04:20:18 10° ENE
Cosmos 1610 Rocket 4.5 04:12:36 31° S 04:15:40 81° E 04:21:49 10° N
Iridium 4 Rocket 3.7 04:18:25 34° S 04:21:11 83° W 04:26:54 10° N
Cosmos 1726 Rocket 3.5 04:21:10 53° SW 04:21:58 66° W 04:26:22 10° N
UNK 3.9 04:22:03 47° SW 04:22:46 52° W 04:27:19 10° NNW
Cosmos 1707 2.8 04:19:50 10° N 04:23:42 74° E 04:25:01 39° SSE
ISS -2.6 04:24:50 10° NW 04:27:59 44° NE 04:31:07 10° ESE
ADEOS 3.5 04:22:58 10° N 04:28:11 72° WNW 04:30:19 36° SSW
SL-16 R/B 3.6 04:26:08 20° W 04:28:13 25° NW 04:32:51 10° N
Meteor 1-4 Rocket 3.4 04:30:12 33° WNW 04:30:12 33° WNW 04:33:14 10° N
Cosmos 44 Rocket 3.1 04:26:06 10° NW 04:30:47 62° WSW 04:34:03 19° SSE
Cosmos 1607 4.4 04:25:06 10° NNW 04:31:32 65° NE 04:37:56 10° SE
Cosmos 1302 Rocket 4.3 04:30:38 36° SW 04:32:30 55° WNW 04:37:43 10° N
Cosmos 1378 3.1 04:30:17 10° N 04:34:01 79° E 04:35:39 32° SSE
USA 161 3.9 04:33:05 10° SE 04:35:36 24° ENE 04:38:05 10° NNE
Cosmos 1606 Rocket 4.2 04:35:27 34° WSW 04:36:13 37° WNW 04:40:21 10° N
IRS-1D 3.9 04:31:38 10° N 04:36:20 45° WNW 04:38:04 32° WSW
H-2A R/B 3.8 04:08:27 10° W 04:37:01 49° SSW 04:42:17 10° SE
Cosmos 2322 Rocket 3.8 04:35:01 17° W 04:37:26 22° NW 04:41:45 10° N
Cosmos 2333 4.4 04:34:25 25° S 04:37:47 67° ESE 04:43:26 10° NNE
CZ-2D R/B 3.4 04:38:11 10° NNE 04:42:32 89° WNW 04:44:34 30° SSW
SL-16 R/B 3.0 04:40:35 28° SW 04:43:12 40° W 04:49:04 10° NNW
Meteor 2-8 Rocket 4.4 04:41:01 10° NNW 04:47:06 73° W 04:52:37 13° S
Cosmos 1503 Rocket 4.1 04:43:52 10° NNW 04:49:12 82° ENE 04:54:33 10° SSE
NOSS 2-3 (D) 4.5 04:51:31 25° WSW 04:53:56 46° NW 04:59:11 10° NNE
Meteor 2-19 Rocket 4.4 04:50:33 21° SSW 04:54:52 72° W 05:01:03 10° N
Cosmos 1340 Rocket 2.7 04:53:18 10° N 04:57:17 87° ENE 05:01:10 10° S
ADEOS II 2.9 04:53:45 10° NNE 04:58:50 48° E 05:03:53 10° S
Resurs 1-4 Rocket 3.2 04:54:33 10° N 04:59:01 29° WNW 05:01:28 20° WSW
Cosmos 1805 4.3 04:57:00 10° SSE 05:00:43 45° E 05:04:29 10° NNE
Meteor 1-22 Rocket 4.3 04:57:20 15° S 05:02:04 89° W 05:08:01 10° N
ARIANE 5 R/B 3.6 05:00:02 10° N 05:04:24 29° WNW 05:06:58 19° WSW
BREEZE-M DEB (TANK) 2.3 05:05:01 26° WSW 05:06:31 73° NNW 05:11:36 10° ENE
Cosmos 1932 4.4 05:00:31 10° NNW 05:07:02 79° WSW 05:13:23 10° SSE
Cosmos 1992 Rocket 4.0 05:07:16 18° SSW 05:11:10 77° WNW 05:16:24 10° NNE
Cosmos 1271 Rocket 3.5 05:11:22 22° SW 05:13:20 37° WNW 05:17:03 10° N
Lacrosse 5 rocket 3.7 05:11:27 10° NNW 05:14:56 27° NE 05:18:34 10° E
Cosmos 2228 4.2 05:13:48 19° WSW 05:15:34 25° WNW 05:19:09 10° NNW
UNKNOWN OBJECT B 3.9 05:12:22 10° NNW 05:15:40 28° WNW 05:17:32 19° WSW
Cosmos 1184 Rocket 3.8 05:13:35 10° NNW 05:16:30 29° W 05:17:41 22° SW
CZ-2D R/B 3.7 05:14:58 10° NNW 05:18:57 21° WNW 05:22:07 13° WSW
Cosmos 1758 3.9 05:15:53 10° S 05:19:47 57° E 05:23:46 10° NNE
ATLAS 2AS CENTAUR R/B 3.4 05:14:19 17° WSW 05:20:26 54° NW 05:28:26 10° NNE
Intercosmos 24 4.5 05:18:33 19° SW 05:20:59 44° WNW 05:25:33 10° N
Cosmos 389 Rocket 3.0 05:21:17 19° SW 05:23:27 41° WNW 05:26:52 10° N
Cosmos 2263 Rocket 3.9 05:21:07 10° WNW 05:23:29 13° W 05:24:05 12° WSW
Cosmos 1809 Rocket 4.5 05:19:18 10° S 05:25:25 90° NW 05:31:37 10° N
Cosmos 1953 2.8 05:23:26 10° S 05:27:24 60° E 05:31:22 10° NNE
Abrixas rocket 3.9 05:25:02 12° S 05:27:29 25° SE 05:30:15 10° E
CZ-4B R/B 3.0 05:24:07 10° NNE 05:27:58 73° ESE 05:32:00 10° S
Lacrosse 5 3.8 05:25:47 10° S 05:29:44 23° ESE 05:33:41 10° ENE
Cosmos 2360 Rocket 3.8 05:25:56 11° W 05:29:49 20° NW 05:33:55 10° N
In-Cosmos 22 4.0 05:25:19 10° NNW 05:30:38 67° W 05:35:51 10° S
COSMOS 2428 3.4 05:27:37 14° SW 05:32:06 40° WNW 05:37:31 10° N
Cosmos 2219 Rocket 2.3 05:28:26 12° SSW 05:33:37 65° WNW 05:39:17 10° NNE
Meteor 2-21 4.4 05:28:24 10° S 05:34:28 80° W 05:40:38 10° N
Cosmos 1980 3.9 05:29:00 10° SSW 05:34:39 78° ESE 05:40:21 10° NNE
DELTA 2 R/B (1) 3.6 05:30:08 10° W 05:35:44 88° N 05:41:20 10° E
Cosmos 2237 Rocket 2.4 05:30:57 10° SSW 05:36:33 74° ESE 05:42:10 10° NNE
Aureole 2 Rocket 3.4 05:33:21 14° SW 05:36:45 44° WNW 05:40:40 10° N
OAO 3 Rocket 3.5 05:32:29 11° WSW 05:36:57 52° S 05:41:43 10° ESE
Cosmos 1959 Rocket 4.5 05:32:04 10° S 05:38:20 79° W 05:44:34 10° N
SEDSat Delta rocket 4.1 05:36:48 13° SW 05:39:44 26° S 05:43:22 10° ESE
SL-8 Rocket 4.1 05:33:33 10° SSW 05:39:48 64° W 05:46:05 10° N
PSLV R/B 3.9 05:38:11 10° N 05:42:03 61° WNW 05:45:59 10° SSW
ATLAS CENTAUR R/B 3.7 05:38:01 10° NW 05:42:34 29° NNE 05:44:52 10° E
CZ-4B R/B 3.5 05:37:55 10° NNE 05:43:37 75° ESE 05:49:12 10° S
Cosmos 1844 Rocket 3.0 05:39:25 10° NW 05:44:46 44° WSW 05:50:06 10° S
Cosmos 1470 3.4 05:43:36 10° S 05:47:28 59° E 05:51:20 10° NNE
Cosmos 1812 Rocket 4.3 05:43:50 10° SW 05:47:48 34° WNW 05:51:48 10° NNW
Cosmos 1544 4.2 05:47:23 10° SW 05:50:35 28° WNW 05:53:51 10° NNW
Cosmos 2333 Rocket 2.4 05:45:26 10° SW 05:51:03 58° WNW 05:56:40 10° NNE
Okean O Rocket 1.7 05:46:56 10° N 05:51:22 70° WNW 05:55:48 10° SSW
SeaSat 1 2.5 05:46:58 10° SSE 05:51:51 63° WSW 05:56:45 10° NNW
Atlas Centaur 2 3.8 05:50:39 10° S 05:52:51 13° SSE 05:55:14 10° SE
Meteor 2-15 4.5 05:47:01 10° NNW 05:53:07 68° W 05:59:11 10° S
IRS-1C Rocket 4.2 05:48:34 10° NNE 05:53:51 88° ESE 05:59:06 10° SSW
ATLAS 3B R/B 2.7 05:48:15 10° NW 05:54:46 56° WSW 06:01:03 10° SSE
Okean 3 Rocket 3.6 05:51:03 10° N 05:55:29 76° W 05:59:56 10° S
Cosmos 1818 3.8 05:55:57 10° SSW 06:01:21 75° ESE 06:06:48 10° NE
BREEZE-M DEB (TANK) 4.2 05:54:06 10° W 06:01:55 37° NNW 06:04:23 10° NE
